This is the latest recevied weather packets stored in our database for station/object DB0LHR-6. If no packets are shown the sender has not sent any weather packets the latest 10 day(s).
| Time | Temp. | Humidity | Pressure | Rain* | Wind** | Luminosity | Snow |
|---|---|---|---|---|---|---|---|
| 1777645875 | 23.89° C | 10% | 1022 hPa | 0 mm | - | - | - |
| 1777644975 | 23.89° C | 13% | 1022 hPa | 0 mm | - | - | - |
| 1777644075 | 24.44° C | 13% | 1022 hPa | 0 mm | - | - | - |
| 1777643174 | 24.44° C | 13% | 1023 hPa | 0 mm | - | - | - |
| 1777642275 | 23.89° C | 13% | 1023 hPa | 0 mm | - | - | - |
| 1777641375 | 24.44° C | 13% | 1023 hPa | 0 mm | - | - | - |
| 1777640475 | 24.44° C | 13% | 1023 hPa | 0 mm | - | - | - |
| 1777639575 | 23.89° C | 15% | 1023 hPa | 0 mm | - | - | - |
| 1777638675 | 23.33° C | 15% | 1023 hPa | 0 mm | - | - | - |
| 1777637775 | 22.78° C | 16% | 1024 hPa | 0 mm | - | - | - |
| 1777636875 | 22.78° C | 16% | 1024 hPa | 0 mm | - | - | - |
| 1777635975 | 22.22° C | 16% | 1024 hPa | 0 mm | - | - | - |
| 1777635075 | 22.22° C | 14% | 1024 hPa | 0 mm | - | - | - |
| 1777634175 | 21.67° C | 16% | 1024 hPa | 0 mm | - | - | - |
| 1777633275 | 21.67° C | 16% | 1024 hPa | 0 mm | - | - | - |
| 1777632375 | 20.56° C | 19% | 1024 hPa | 0 mm | - | - | - |
| 1777631475 | 20.56° C | 19% | 1025 hPa | 0 mm | - | - | - |
| 1777630575 | 20° C | 17% | 1025 hPa | 0 mm | - | - | - |
| 1777629675 | 19.44° C | 20% | 1025 hPa | 0 mm | - | - | - |
| 1777628774 | 19.44° C | 20% | 1025 hPa | 0 mm | - | - | - |
| 1777627875 | 18.89° C | 20% | 1025 hPa | 0 mm | - | - | - |
| 1777626975 | 18.89° C | 17% | 1025 hPa | 0 mm | - | - | - |
| 1777626075 | 18.89° C | 17% | 1025 hPa | 0 mm | - | - | - |
| 1777624343 | 18.33° C | 20% | 1025 hPa | 0 mm | - | - | - |
| 1777623442 | 17.22° C | 20% | 1025 hPa | 0 mm | - | - | - |
* Rain latest 24 hours (hover to see other rain measurements)
** Current wind speed in m/s (hover to see current wind gust speed)